[[{"header":{"parameterUnit":"m.s-1","parameterCategory":1,"la1":30.2991,"la2":30.254,"lo1":-89.0895,"lo2":-89.0444,"dx":0.0017,"dy":0.0017,"nx":28,"ny":28,"refTime":"2022-11-08T09:00:00:Z","depth":0,"parameterNumber":2,"parameterNumberName":"U-component_of_WINDS"},"data":[0,0,0,0,0,0,0,0,0,0,0,0,0,0,0,0,0,0,0,0,0,0,0,0,0,0,0,0,0,0,0,0,0,0,0,0,0,0,0,0,0,0,0,0,0,0,0,0,0,0,0,0,0,0,0,0,0,0,-3.8147,-3.8149,0,-3.8368,-3.8371,-3.8373,-3.8365,-3.8362,-3.8359,-3.8356,-3.8592,-3.8601,-3.861,0,0,0,0,0,0,0,0,0,0,0,0,0,-3.7727,-3.7735,-3.8147,-3.8149,-3.8152,-3.8368,-3.8371,-3.8374,-3.8366,-3.8362,-3.8358,-3.8355,-3.8589,-3.86,-3.8611,0,0,0,0,0,0,0,0,0,0,0,0,0,-3.7925,-3.7738,-3.8146,-3.8174,-3.8179,-3.8367,-3.8371,-3.8375,-3.8367,-3.8362,-3.8357,-3.8353,-3.8585,-3.8599,-3.8612,-3.879,0,0,-3.8654,-3.866,0,0,0,0,0,0,0,0,-3.7914,-3.7941,-3.8167,-3.8172,-3.8178,-3.8334,-3.8309,-3.8514,-3.8368,-3.8296,-3.8356,-3.8351,-3.851,-3.853,-3.8582,-3.8801,-3.8811,-3.8655,-3.8664,-3.867,-3.8673,0,0,0,0,0,0,0,-3.7901,-3.7931,-3.8235,-3.8171,-3.8177,-3.8179,-3.8202,-3.8348,-3.8427,-3.8302,-3.8302,-3.8327,-3.8513,-3.8569,-3.8588,-3.8815,-3.8655,-3.8667,-3.8676,-3.8681,-3.9197,-3.9202,0,0,0,0,0,0,-3.788,-3.792,-3.8228,-3.8241,-3.8032,-3.819,-3.8216,-3.8289,-3.8425,-3.8441,-3.8331,-3.8326,-3.8548,-3.8572,-3.8596,-3.8817,-3.8669,-3.8682,-3.869,-3.9191,-3.9198,-3.9204,0,0,0,0,0,0,-3.7871,-3.7907,-3.8219,-3.8081,-3.812,-3.8202,-3.8285,-3.8296,-3.8352,-3.8447,-3.8462,-3.8374,-3.8545,-3.8576,-3.8742,-3.8824,-3.8688,-3.8701,-3.9185,-3.9193,-3.9201,-3.9257,0,0,0,0,0,0,-3.7858,-3.7904,-3.7969,-3.8082,-3.8128,-3.8358,-3.8289,-3.8304,-3.8375,-3.837,-3.8491,-3.8507,-3.8544,-3.8722,-3.8756,-3.8841,-3.8712,-3.9178,-3.9189,-3.9198,-3.9248,-3.9266,-3.9281,0,0,0,0,0,-3.7844,-3.7977,-3.7973,-3.801,-3.8211,-3.8363,-3.8389,-3.8427,-3.8381,-3.845,-3.8512,-3.8503,-3.881,-3.8739,-3.8777,-3.8868,-3.9173,-3.9186,-3.9197,-3.9241,-3.9263,-3.9281,0,0,0,0,0,0,-3.7874,-3.7992,-3.7989,-3.8162,-3.8252,-3.8361,-3.8449,-3.8448,-3.8555,-3.8547,-3.8592,-3.8619,-3.8786,-3.8843,-3.8763,-3.905,-3.8986,-3.9007,-3.9006,-3.9027,-3.9044,-3.9027,-3.8723,0,0,0,0,0,-3.7901,-3.8011,-3.811,-3.8254,-3.8299,-3.8366,-3.8434,-3.8455,-3.8551,-3.859,-3.8664,-3.876,-3.8879,-3.8956,-3.907,-3.9256,-3.9285,-3.9338,-3.9354,-3.9367,-3.9385,-3.9493,-3.9519,-3.9244,-3.9244,-3.9244,0,0,-3.7958,-3.8036,-3.8103,-3.8262,-3.8334,-3.8451,-3.8398,-3.8523,-3.8612,-3.861,-3.8771,-3.8829,-3.894,-3.9118,-3.92,-3.9171,-3.9468,-3.9383,-3.9393,-3.9404,-3.9508,-3.9534,-3.9557,-3.9252,-3.9251,-3.9249,0,0,-3.8121,-3.819,-3.8319,-3.8392,-3.8502,-3.8546,-3.8578,-3.8688,-3.8725,-3.8887,-3.889,-3.8997,-3.9199,-3.928,-3.9347,-3.9545,-3.9542,-3.9581,-3.9668,-3.9772,-3.9794,-3.9814,-3.9888,-3.9914,-3.9598,-3.9598,-3.9598,0,-3.8178,-3.8351,-3.8386,-3.8512,-3.8584,-3.8586,-3.872,-3.879,-3.8933,-3.8984,-3.8949,-3.9205,-3.928,-3.9478,-3.9527,-3.958,-3.9621,-3.9568,-3.9787,-3.9808,-3.9826,-3.9898,-3.9925,-3.9603,-3.9602,-3.9602,-3.9601,0,-3.8418,-3.8539,-3.8631,-3.8766,-3.8849,-3.8978,-3.9036,-3.9116,-3.9131,-3.918,-3.9348,-3.9438,-3.9572,-3.9621,-3.9637,-3.9824,-3.9803,-3.9777,-3.9714,-3.9856,-3.9924,-3.9952,-3.9609,-3.9607,-3.9606,-3.9605,0,0,-3.8606,-3.8761,-3.8794,-3.8858,-3.898,-3.9076,-3.9208,-3.9337,-3.9406,-3.9506,-3.962,-3.9793,-3.9771,-3.9847,-3.9873,-3.9964,-4.012,-3.9928,-3.9932,-3.9963,-4.0337,-4.0357,-4.0387,-4.0119,-4.0124,-4.0128,-4.0328,0,-3.8784,-3.9014,-3.9051,-3.9255,-3.937,-3.9375,-3.9491,-3.9581,-3.9632,-3.9739,-3.9797,-3.9919,-3.9879,-3.9926,-4.0016,-4.0082,-4.0196,-4.0068,-4.023,-4.0235,-4.0204,-4.0422,-4.0443,-4.0627,-4.0355,-4.0359,-4.0363,0,-3.9022,-3.9127,-3.9342,-3.9452,-3.9502,-3.9604,-3.9728,-3.9829,-3.9933,-3.9965,-4.0051,-4.0067,-4.0209,-4.0139,-4.0338,-4.025,-4.0319,-4.0362,-4.037,-4.0389,-4.0309,-4.0449,-4.0687,-4.0715,-4.0404,-4.0401,-4.0398,0,-3.9142,-3.9336,-3.949,-3.9544,-3.9676,-3.9749,-3.9808,-3.9908,-3.9984,-4.0094,-4.0145,-4.027,-4.0339,-4.0438,-4.0489,-4.0433,-4.0686,-4.0619,-4.072,-4.0719,-4.0774,-4.077,-4.1029,-4.0815,-4.0814,-4.0814,-4.0813,0,-3.9338,-3.947,-3.9546,-3.9641,-3.9792,-3.9834,-3.9983,-4.0041,-4.013,-4.024,-4.0253,-4.0357,-4.0417,-4.0532,-4.0573,-4.0734,-4.0765,-4.0797,-4.0807,-4.0797,-4.0794,-4.0844,-4.0834,-4.0821,-4.0819,-4.0818,-4.0817,0,-3.9496,-3.9552,-3.9721,-3.9833,-3.9864,-3.997,-4.0068,-4.0163,-4.0214,-4.0354,-4.0389,-4.0471,-4.0606,-4.0667,-4.0834,-4.0863,-4.1047,-4.1047,-4.1011,-4.1015,-4.1113,-4.1105,-4.1416,-4.146,-4.1214,-4.1216,-4.1218,0,-3.9618,-3.972,-3.9843,-3.9916,-3.9977,-4.0095,-4.0173,-4.0221,-4.0303,-4.0432,-4.0513,-4.0648,-4.0759,-4.0976,-4.1053,-4.1183,-4.1187,-4.1287,-4.1207,-4.1195,-4.1193,-4.1187,-4.12,-4.1303,-4.1305,-4.1307,-4.1308,0,-3.9831,-3.9854,-3.9964,-4.0087,-4.0179,-4.0278,-4.0375,-4.0436,-4.05,-4.0592,-4.0729,-4.0815,-4.0986,-4.1123,-4.1258,-4.1323,-4.1329,-4.1333,-4.1364,-4.1356,-4.1333,-4.135,-4.1054,-4.1326,-4.1324,-4.1323,-4.1322,-4.1321,-3.9977,-4.0069,-4.017,-4.0295,-4.0373,-4.0464,-4.056,-4.0623,-4.0738,-4.0879,-4.0901,-4.1049,-4.1157,-4.1338,-4.1409,-4.1529,-4.1505,-4.1548,-4.156,-4.1571,-4.1578,-4.1311,-4.1553,-4.1553,-4.1552,-4.1552,-4.1552,0,-4.0193,-4.0258,-4.0372,-4.0507,-4.0607,-4.06,-4.0708,-4.0793,-4.0922,-4.1019,-4.1128,-4.1289,-4.1422,-4.151,-4.1646,-4.1725,-4.1732,-4.176,-4.1756,-4.1772,-4.159,-4.1551,-4.1753,-4.1753,-4.1753,-4.1753,-4.1752,-4.1752,-4.0316,-4.0473,-4.0509,-4.0707,-4.0773,-4.0916,-4.0979,-4.1065,-4.1144,-4.1322,-4.1431,-4.1487,-4.1583,-4.1726,-4.185,-4.1873,-4.1924,-4.1954,-4.1976,-4.1805,-4.1784,-4.1764,-4.1728,-4.1964,-4.1964,-4.2149,-4.215,-4.2152]},{"header":{"parameterUnit":"m.s-1","parameterCategory":1,"la1":30.2991,"la2":30.254,"lo1":-89.0895,"lo2":-89.0444,"dx":0.0017,"dy":0.0017,"nx":28,"ny":28,"refTime":"2022-11-08T09:00:00:Z","depth":0,"parameterNumber":3,"parameterNumberName":"V-component_of_WINDS"},"data":[0,0,0,0,0,0,0,0,0,0,0,0,0,0,0,0,0,0,0,0,0,0,0,0,0,0,0,0,0,0,0,0,0,0,0,0,0,0,0,0,0,0,0,0,0,0,0,0,0,0,0,0,0,0,0,0,0,0,-1.0003,-1.0002,0,-0.9867,-0.9865,-0.9864,-0.9793,-0.9793,-0.9793,-0.9793,-0.9651,-0.9647,-0.9644,0,0,0,0,0,0,0,0,0,0,0,0,0,-1.0201,-1.0198,-1.0004,-1.0002,-1.0,-0.9867,-0.9865,-0.9863,-0.9793,-0.9793,-0.9793,-0.9793,-0.9652,-0.9648,-0.9643,0,0,0,0,0,0,0,0,0,0,0,0,0,-1.0095,-1.0197,-1.0004,-0.9949,-0.9943,-0.9867,-0.9865,-0.9863,-0.9793,-0.9793,-0.9793,-0.9793,-0.9654,-0.9648,-0.9643,-0.961,0,0,-0.9626,-0.9623,0,0,0,0,0,0,0,0,-1.0101,-1.0088,-0.9959,-0.9953,-0.9946,-0.9847,-0.9882,-0.9778,-0.9793,-0.985,-0.9793,-0.9793,-0.9716,-0.9705,-0.968,-0.9604,-0.9598,-0.9625,-0.9622,-0.9619,-0.9618,0,0,0,0,0,0,0,-1.0108,-1.0093,-0.9949,-0.9957,-0.9949,-0.993,-0.9915,-0.9862,-0.9785,-0.9845,-0.9839,-0.9824,-0.9712,-0.9685,-0.9676,-0.9596,-0.9625,-0.962,-0.9617,-0.9615,-0.9484,-0.9484,0,0,0,0,0,0,-1.0125,-1.01,-0.9954,-0.9945,-1.0025,-0.9927,-0.991,-0.9879,-0.9786,-0.9771,-0.9825,-0.9822,-0.9695,-0.9683,-0.9671,-0.9626,-0.9619,-0.9614,-0.9611,-0.9484,-0.9484,-0.9484,0,0,0,0,0,0,-1.013,-1.0113,-0.9959,-1.0021,-1.0,-0.9924,-0.9889,-0.9876,-0.9849,-0.977,-0.9756,-0.9811,-0.9694,-0.9679,-0.9626,-0.962,-0.9612,-0.9607,-0.9485,-0.9484,-0.9484,-0.9536,0,0,0,0,0,0,-1.0136,-1.0115,-1.0103,-1.0021,-0.9997,-0.9918,-0.9889,-0.9873,-0.984,-0.9834,-0.9754,-0.9741,-0.9693,-0.9634,-0.962,-0.9612,-0.9602,-0.9485,-0.9485,-0.9484,-0.9535,-0.9538,-0.9541,0,0,0,0,0,-1.0143,-1.0123,-1.0102,-1.0085,-0.998,-0.9917,-0.9903,-0.985,-0.984,-0.9826,-0.9775,-0.9743,-0.9623,-0.963,-0.9613,-0.9603,-0.9485,-0.9485,-0.9484,-0.9533,-0.9537,-0.9541,0,0,0,0,0,0,-1.0205,-1.0111,-1.0088,-1.0041,-0.9988,-0.9906,-0.9887,-0.9856,-0.9804,-0.9801,-0.9736,-0.9718,-0.9671,-0.9632,-0.9641,-0.9566,-0.955,-0.9547,-0.9594,-0.9597,-0.96,-0.961,-0.9598,0,0,0,0,0,-1.0213,-1.0171,-1.0091,-1.0057,-1.0032,-0.9964,-0.9935,-0.9898,-0.984,-0.9817,-0.9762,-0.9707,-0.9656,-0.9624,-0.9573,-0.9529,-0.9509,-0.9514,-0.9517,-0.9519,-0.9517,-0.9489,-0.9489,-0.9483,-0.9483,-0.9483,0,0,-1.023,-1.0173,-1.0151,-1.0068,-1.0023,-0.9979,-0.9946,-0.9901,-0.9868,-0.981,-0.9756,-0.9714,-0.9648,-0.9599,-0.9574,-0.9564,-0.9514,-0.9519,-0.9522,-0.9518,-0.9489,-0.9489,-0.949,-0.9483,-0.9483,-0.9483,0,0,-1.0238,-1.0192,-1.0158,-1.0113,-1.0044,-0.9999,-0.9991,-0.9913,-0.9883,-0.9829,-0.9784,-0.9743,-0.9657,-0.9611,-0.9577,-0.9566,-0.9534,-0.9551,-0.9567,-0.954,-0.954,-0.954,-0.9535,-0.9535,-0.9549,-0.9549,-0.9549,0,-1.0267,-1.02,-1.0144,-1.0102,-1.0066,-1.0012,-0.9976,-0.9935,-0.9853,-0.983,-0.982,-0.9711,-0.9662,-0.9601,-0.9598,-0.9572,-0.956,-0.956,-0.9545,-0.9544,-0.9544,-0.9538,-0.9537,-0.9552,-0.9551,-0.9551,-0.9551,0,-1.0239,-1.0193,-1.0174,-1.0097,-1.0059,-1.002,-0.9957,-0.9925,-0.9891,-0.9847,-0.9791,-0.9731,-0.9666,-0.9649,-0.9616,-0.9582,-0.9578,-0.9558,-0.9541,-0.9548,-0.9541,-0.9539,-0.9555,-0.9554,-0.9554,-0.9553,0,0,-1.0283,-1.0174,-1.0168,-1.0131,-1.0051,-1.0014,-0.9973,-0.991,-0.9883,-0.9828,-0.9791,-0.9719,-0.9699,-0.966,-0.9621,-0.9598,-0.9591,-0.9579,-0.9577,-0.9583,-0.9549,-0.9565,-0.9563,-0.957,-0.9569,-0.9569,-0.9555,0,-1.0278,-1.0202,-1.0149,-1.0093,-1.0049,-0.9996,-0.9959,-0.9906,-0.9863,-0.9818,-0.9771,-0.9721,-0.9699,-0.9674,-0.9649,-0.9598,-0.9584,-0.9598,-0.9533,-0.9531,-0.9551,-0.956,-0.9577,-0.9566,-0.9552,-0.9551,-0.9551,0,-1.0264,-1.0211,-1.015,-1.0073,-1.0053,-1.0021,-0.9958,-0.9917,-0.9854,-0.9825,-0.9781,-0.974,-0.9692,-0.968,-0.9613,-0.9624,-0.9594,-0.9564,-0.9562,-0.9554,-0.9541,-0.9551,-0.9562,-0.956,-0.9547,-0.9547,-0.9547,0,-1.03,-1.0214,-1.0166,-1.0136,-1.0046,-1.0024,-0.9986,-0.9923,-0.9888,-0.9833,-0.9809,-0.975,-0.9717,-0.9671,-0.9615,-0.9611,-0.9553,-0.9536,-0.9526,-0.9527,-0.9516,-0.9517,-0.9521,-0.9498,-0.9498,-0.9498,-0.9498,0,-1.0301,-1.0266,-1.0181,-1.0151,-1.0109,-1.0049,-1.0009,-0.9965,-0.991,-0.987,-0.982,-0.9784,-0.9713,-0.9667,-0.9623,-0.9573,-0.9559,-0.9533,-0.9521,-0.9536,-0.954,-0.9516,-0.9515,-0.9497,-0.9498,-0.9498,-0.9498,0,-1.0335,-1.0277,-1.0221,-1.014,-1.0118,-1.0091,-1.0021,-0.9989,-0.9944,-0.9894,-0.9879,-0.9806,-0.975,-0.969,-0.9613,-0.9583,-0.9535,-0.952,-0.9557,-0.955,-0.9543,-0.9544,-0.9531,-0.9526,-0.9508,-0.9508,-0.9508,0,-1.0339,-1.031,-1.0226,-1.0196,-1.0159,-1.0111,-1.0075,-1.0013,-0.9978,-0.9904,-0.9881,-0.9821,-0.9769,-0.9682,-0.9622,-0.9563,-0.9544,-0.9544,-0.9535,-0.9551,-0.9543,-0.9545,-0.9542,-0.9547,-0.9547,-0.9548,-0.9548,0,-1.0352,-1.0324,-1.0274,-1.0214,-1.0173,-1.0123,-1.007,-1.0048,-0.9976,-0.9938,-0.988,-0.984,-0.9762,-0.9702,-0.9635,-0.9594,-0.9559,-0.9551,-0.9546,-0.9561,-0.9583,-0.957,-0.9563,-0.9552,-0.9551,-0.9551,-0.9551,-0.9551,-1.037,-1.0341,-1.0277,-1.0223,-1.0177,-1.0129,-1.0095,-1.0045,-0.9996,-0.9927,-0.9894,-0.9835,-0.9772,-0.9678,-0.9638,-0.9591,-0.958,-0.9572,-0.957,-0.9569,-0.9572,-0.9591,-0.9579,-0.9578,-0.9578,-0.9578,-0.9578,0,-1.0379,-1.0335,-1.0286,-1.0214,-1.0171,-1.0142,-1.0082,-1.0048,-0.9997,-0.9941,-0.9892,-0.9824,-0.9766,-0.9701,-0.9639,-0.9613,-0.9595,-0.9599,-0.96,-0.9591,-0.9586,-0.9597,-0.9614,-0.9614,-0.9614,-0.9614,-0.9614,-0.9614,-1.0379,-1.0329,-1.0293,-1.022,-1.0175,-1.0118,-1.0086,-1.0041,-0.9996,-0.9923,-0.9874,-0.9833,-0.9773,-0.9705,-0.965,-0.9632,-0.9611,-0.9619,-0.9597,-0.9594,-0.9591,-0.9588,-0.9598,-0.9616,-0.9616,-0.9605,-0.9605,-0.9605]}]]